Home   Weather   France   Douai   Past weeks
Flag for France

Past Weather in Douai, Nord, France — Yesterday and Last 2 Weeks

Currently: 64 °F. Sunny. (Weather station: Lille Airport, France). See more current weather

Past Weather in Douai — Graph

°F

Douai Temperature Yesterday

Maximum temperature yesterday: 70 °F (at 4:30 pm)
Minimum temperature yesterday: 48 °F (at 4:00 am)
Average temperature yesterday: 59 °F

High & Low Weather Summary for the Past Weeks

 TemperatureHumidityPressure
High82 °F (May 12, 5:30 pm)100% (May 14, 10:30 pm)30.09 "Hg (May 14, 10:30 pm)
Low48 °F (May 25, 4:00 am)40% (May 12, 5:30 pm)29.59 "Hg (May 14, 4:00 am)
Average61 °F80%29.85 "Hg
* Reported May 11 8:00 pm — May 26 8:00 pm, Douai. Weather by CustomWeather, © 2024

Note: Actual official high and low records may vary slightly from our data, if they occured in-between our weather recording intervals... More about our weather records

Douai Weather History for the Previous 24 Hours

Scroll right to see more
 ConditionsComfort  
Time TempWeatherWind HumidityBarometerVisibility
8:00 pm
Sun, May 26
66 °FSunny.12 mph56%29.95 "Hg10 mi
7:00 pm68 °FPassing clouds.10 mph53%29.95 "HgN/A
6:30 pm68 °FPassing clouds.13 mph53%29.95 "HgN/A
6:00 pm68 °FSunny.14 mph56%29.95 "Hg10 mi
5:30 pm68 °FPartly sunny.17 mph49%29.95 "HgN/A
5:00 pm68 °FPartly sunny.17 mph56%29.95 "HgN/A
4:30 pm68 °FBroken clouds.18 mph60%29.92 "HgN/A
4:00 pm68 °FBroken clouds.16 mph64%29.92 "HgN/A
3:30 pm68 °FScattered clouds.12 mph64%29.92 "HgN/A
3:00 pm66 °FThundershowers. Broken clouds.15 mph73%29.92 "HgN/A
2:00 pm66 °FLight rain. Broken clouds.10 mph78%29.89 "HgN/A
1:00 pm66 °FBroken clouds.7 mph73%29.92 "HgN/A
12:30 pm66 °FPartly sunny.6 mph73%29.92 "HgN/A
12:00 pm64 °FBroken clouds.6 mph78%29.92 "HgN/A
11:30 am63 °FOvercast.2 mph83%29.92 "HgN/A
11:00 am59 °FMore clouds than sun.2 mph88%29.92 "HgN/A
10:00 am57 °FMostly cloudy.9 mph94%29.92 "HgN/A
9:30 am57 °FMostly cloudy.9 mph94%29.92 "HgN/A
9:00 am57 °FLight rain. Cloudy.6 mph94%29.92 "Hg6 mi
8:00 am57 °FLight rain. Cloudy.8 mph94%29.92 "HgN/A
7:30 am57 °FCool.7 mph94%29.92 "HgN/A
7:00 am57 °FCool.7 mph94%29.92 "HgN/A
6:30 am57 °FLight rain. Fog.3 mph88%29.95 "Hg3 mi
6:00 am57 °FLight rain. Fog.10 mph94%29.95 "Hg3 mi
5:30 am57 °FOvercast.10 mph82%29.95 "HgN/A
5:00 am57 °FCool.6 mph82%29.92 "HgN/A
4:30 am57 °FClear.7 mph77%29.95 "Hg10 mi
3:30 am57 °FClear.5 mph77%29.95 "Hg10 mi
3:00 am57 °FClear.5 mph77%29.98 "Hg10 mi
2:30 am57 °FClear.7 mph77%29.98 "Hg10 mi
2:00 am57 °FClear.5 mph77%29.98 "Hg10 mi
1:30 am57 °FClear.5 mph77%29.98 "Hg10 mi
1:00 am57 °FClear.3 mph77%29.98 "Hg10 mi
12:30 am57 °FClear.6 mph77%29.98 "Hg10 mi
12:00 am59 °FClear.3 mph72%30.01 "Hg10 mi
11:30 pm
Sat, May 25
59 °FClear.6 mph72%30.01 "Hg10 mi
11:00 pm59 °FClear.2 mph72%30.01 "Hg10 mi
10:30 pm61 °FClear.5 mph68%30.01 "Hg10 mi
10:00 pm61 °FClear.3 mph63%30.01 "Hg10 mi
9:00 pm66 °FSunny.1 mph49%30.01 "Hg10 mi
Weather by CustomWeather, © 2024

See weather overview